sat.trackr.live / text

‹ back to catalog

STARLINK-30752

NORAD 58171 · 2023-166X

PAYLOAD ACTIVE UNKNOWN

§ Identity

Operator
Country
US
Launch date
2023-10-29
Launch site
AFWTR
Launch vehicle
Mass (kg)
RCS (m²)

Purposes: comms

External: N2YO · Heavens-Above · Gunter

§ Orbital elements

Epoch: 2026-05-24T22:12:09.191232Z

Period
94.11 min
Inclination
53.1601°
Eccentricity
0.0001070
Mean motion
15.30184316 rev/d
Perigee alt
474.5 km
Apogee alt
476.0 km
Semi-major
6,853.4 km
B*
-7.0784e-5
RAAN
225.3346°
Arg perigee
92.9360°
Mean anomaly
267.1764°
Rev number
14,485

§ Raw data

STARLINK-307521 58171U 23166X   26144.92510638 -.00002454  00000+0 -70784-4 0  99972 58171  53.1601 225.3346 0001070  92.9360 267.1764 15.30184316144859

JSON: /api/v1/satellites/58171 · /tle

For live sub-satellite position, see the globe view (requires WebGL).

§ Visibility from observer

Set your observer location to see the next 7 days of passes ≥ 10°. The values pass through the URL so the page stays shareable.

No JS? Fill the form by hand. The geolocation button needs JavaScript.